�������l�o���
Date,Time,MP-1(��Sv/h),MP-2(��Sv/h),MP-3(��Sv/h),MP-4(��Sv/h),MP-5(��Sv/h),MP-6(��Sv/h),MP-7(��Sv/h),MP-8(��Sv/h),����,����(m/s),���J
2021/07/07,00:00,0.598,0.869,0.566,1.071,0.755,0.367,0.628,0.587,��,3.5,�L
2021/07/07,00:10,0.597,0.870,0.565,1.068,0.756,0.366,0.627,0.588,��,3.7,�L
2021/07/07,00:20,0.596,0.871,0.568,1.067,0.755,0.366,0.626,0.585,��,4.4,�L
2021/07/07,00:30,0.593,0.869,0.565,1.066,0.756,0.364,0.627,0.585,��,4.3,�L
2021/07/07,00:40,0.594,0.870,0.565,1.065,0.754,0.365,0.628,0.586,��,3.2,�L
2021/07/07,00:50,0.594,0.870,0.566,1.064,0.755,0.364,0.627,0.586,��,1.7,�L
2021/07/07,01:00,0.594,0.867,0.565,1.062,0.752,0.364,0.626,0.585,�쐼,1.5,�L
2021/07/07,01:10,0.593,0.864,0.564,1.060,0.750,0.365,0.624,0.585,��쐼,1.4,�L
2021/07/07,01:20,0.591,0.860,0.563,1.055,0.747,0.365,0.624,0.584,�쐼,2.3,�L
2021/07/07,01:30,0.587,0.855,0.563,1.049,0.747,0.364,0.622,0.583,��쐼,2.0,�L
2021/07/07,01:40,0.586,0.853,0.561,1.043,0.744,0.364,0.621,0.583,��,1.7,�L
2021/07/07,01:50,0.588,0.854,0.563,1.041,0.742,0.365,0.621,0.584,��,3.0,�L
2021/07/07,02:00,0.590,0.857,0.562,1.045,0.745,0.365,0.622,0.583,��쐼,2.9,�L
2021/07/07,02:10,0.589,0.853,0.560,1.038,0.740,0.364,0.620,0.583,��쐼,5.0,�L
2021/07/07,02:20,0.588,0.851,0.561,1.038,0.740,0.365,0.618,0.581,��쐼,5.8,�L
2021/07/07,02:30,0.585,0.846,0.558,1.033,0.735,0.363,0.617,0.579,��쐼,6.0,�L
2021/07/07,02:40,0.582,0.843,0.560,1.027,0.731,0.365,0.615,0.578,��,7.0,�L
2021/07/07,02:50,0.582,0.843,0.558,1.025,0.729,0.365,0.616,0.576,��,5.7,�L
2021/07/07,03:00,0.585,0.845,0.559,1.027,0.730,0.366,0.615,0.577,��,6.9,�L
2021/07/07,03:10,0.585,0.847,0.558,1.023,0.729,0.367,0.616,0.578,��,5.5,�L
2021/07/07,03:20,0.585,0.846,0.559,1.026,0.728,0.364,0.617,0.578,��,7.6,�L
2021/07/07,03:30,0.586,0.850,0.560,1.028,0.729,0.365,0.616,0.578,��,7.5,�L
2021/07/07,03:40,0.588,0.850,0.560,1.028,0.726,0.365,0.614,0.578,�쓌,4.0,�L
2021/07/07,03:50,0.587,0.848,0.559,1.025,0.724,0.365,0.614,0.578,��쓌,6.9,�L
2021/07/07,04:00,0.587,0.849,0.560,1.022,0.724,0.365,0.616,0.576,��쐼,6.0,�L
2021/07/07,04:10,0.586,0.849,0.558,1.025,0.722,0.365,0.614,0.578,��,5.2,�L
2021/07/07,04:20,0.585,0.849,0.559,1.021,0.720,0.363,0.615,0.578,��,5.2,�L
2021/07/07,04:30,0.587,0.847,0.559,1.023,0.724,0.366,0.617,0.578,��,4.9,�L
2021/07/07,04:40,0.589,0.851,0.559,1.026,0.724,0.365,0.616,0.578,��,5.1,�L
2021/07/07,04:50,0.591,0.852,0.559,1.027,0.724,0.365,0.617,0.579,��,4.8,�L
2021/07/07,05:00,0.588,0.853,0.559,1.030,0.726,0.365,0.616,0.579,��쓌,4.6,�L
2021/07/07,05:10,0.590,0.856,0.560,1.032,0.728,0.364,0.619,0.579,��쓌,4.1,�L
2021/07/07,05:20,0.588,0.854,0.559,1.034,0.726,0.364,0.616,0.579,��쓌,3.4,�L
2021/07/07,05:30,0.589,0.856,0.558,1.035,0.726,0.362,0.618,0.579,��,1.5,�L
2021/07/07,05:40,0.588,0.854,0.558,1.036,0.728,0.361,0.618,0.579,�k��,0.6,��
2021/07/07,05:50,0.585,0.852,0.555,1.036,0.727,0.360,0.618,0.580,�k�k��,2.3,�L
2021/07/07,06:00,0.585,0.847,0.555,1.031,0.722,0.360,0.616,0.578,�k�k��,2.3,�L
2021/07/07,06:10,0.584,0.847,0.555,1.028,0.720,0.359,0.615,0.577,�k��,2.0,�L
2021/07/07,06:20,0.584,0.847,0.555,1.026,0.719,0.359,0.614,0.577,���k��,2.2,�L
2021/07/07,06:30,0.582,0.846,0.553,1.029,0.722,0.360,0.615,0.577,�k�k��,2.0,�L
2021/07/07,06:40,0.584,0.847,0.553,1.029,0.720,0.359,0.615,0.578,�k��,2.2,�L
2021/07/07,06:50,0.585,0.847,0.554,1.030,0.722,0.359,0.615,0.578,��,2.6,�L
2021/07/07,07:00,0.583,0.850,0.553,1.033,0.723,0.359,0.616,0.577,���쓌,4.9,�L
2021/07/07,07:10,0.584,0.848,0.552,1.036,0.721,0.358,0.617,0.577,���쓌,3.6,�L
2021/07/07,07:20,0.582,0.848,0.552,1.036,0.723,0.356,0.616,0.578,���쓌,3.2,��
2021/07/07,07:30,0.583,0.849,0.553,1.034,0.723,0.357,0.617,0.579,�쓌,2.9,��
2021/07/07,07:40,0.583,0.852,0.554,1.038,0.725,0.358,0.616,0.579,�쓌,3.3,��
2021/07/07,07:50,0.583,0.848,0.556,1.039,0.723,0.360,0.617,0.578,��쓌,3.1,��
2021/07/07,08:00,0.583,0.850,0.555,1.040,0.724,0.359,0.616,0.579,��쓌,3.2,�L
2021/07/07,08:10,0.582,0.851,0.554,1.039,0.723,0.358,0.617,0.578,��쓌,3.9,�L
2021/07/07,08:20,0.582,0.853,0.555,1.040,0.726,0.358,0.617,0.578,��,4.1,��
2021/07/07,08:30,0.583,0.853,0.555,1.039,0.727,0.358,0.617,0.579,��,4.6,��
2021/07/07,08:40,0.583,0.853,0.554,1.043,0.725,0.359,0.617,0.580,��쐼,3.2,��
2021/07/07,08:50,0.583,0.855,0.555,1.043,0.728,0.358,0.617,0.579,��쐼,3.6,�L
2021/07/07,09:00,0.585,0.853,0.553,1.042,0.727,0.358,0.619,0.580,��쐼,3.1,�L
2021/07/07,09:10,0.583,0.849,0.552,1.042,0.724,0.358,0.619,0.579,��,4.2,�L
2021/07/07,09:20,0.582,0.851,0.553,1.042,0.725,0.359,0.616,0.578,��,3.3,�L
2021/07/07,09:30,0.583,0.850,0.555,1.041,0.725,0.359,0.618,0.579,��쐼,3.6,�L
2021/07/07,09:40,0.581,0.851,0.553,1.040,0.726,0.360,0.619,0.579,��,3.8,�L
2021/07/07,09:50,0.584,0.851,0.554,1.041,0.728,0.359,0.618,0.579,��,2.3,�L
2021/07/07,10:00,0.584,0.851,0.553,1.041,0.726,0.360,0.618,0.579,��,3.1,�L
2021/07/07,10:10,0.583,0.852,0.554,1.043,0.727,0.357,0.619,0.578,��,3.1,��
2021/07/07,10:20,0.583,0.851,0.555,1.042,0.726,0.357,0.618,0.579,��,3.6,��
2021/07/07,10:30,0.582,0.852,0.555,1.043,0.727,0.359,0.618,0.579,��,4.1,��
2021/07/07,10:40,0.584,0.852,0.555,1.046,0.727,0.359,0.618,0.581,��,4.0,�L
2021/07/07,10:50,0.584,0.853,0.556,1.043,0.728,0.357,0.619,0.582,��,3.1,��
2021/07/07,11:00,0.583,0.852,0.553,1.041,0.728,0.358,0.619,0.581,��,3.2,��
2021/07/07,11:10,0.585,0.853,0.554,1.042,0.731,0.358,0.619,0.581,��,3.2,��
2021/07/07,11:20,0.584,0.855,0.554,1.043,0.730,0.358,0.620,0.580,�쐼,2.9,�L
2021/07/07,11:30,0.584,0.851,0.553,1.041,0.724,0.359,0.619,0.579,��,3.7,�L
2021/07/07,11:40,0.582,0.848,0.551,1.035,0.718,0.360,0.616,0.578,��,3.3,�L
2021/07/07,11:50,0.582,0.847,0.554,1.035,0.721,0.360,0.617,0.577,��,3.8,�L
2021/07/07,12:00,0.584,0.850,0.555,1.035,0.722,0.360,0.618,0.579,�쓌,5.0,�L
2021/07/07,12:10,0.585,0.853,0.555,1.036,0.723,0.361,0.619,0.579,�쓌,5.9,��
2021/07/07,12:20,0.585,0.853,0.556,1.036,0.724,0.362,0.616,0.579,�쓌,4.0,��
2021/07/07,12:30,0.584,0.853,0.554,1.035,0.724,0.359,0.618,0.579,�쓌,2.8,��
2021/07/07,12:40,0.584,0.854,0.553,1.036,0.726,0.360,0.619,0.578,���쓌,2.3,��
2021/07/07,12:50,0.583,0.854,0.554,1.037,0.725,0.359,0.619,0.579,���쓌,1.2,��
2021/07/07,13:00,0.585,0.850,0.554,1.039,0.725,0.359,0.617,0.580,��쓌,1.5,��
2021/07/07,13:10,0.585,0.854,0.553,1.038,0.726,0.359,0.620,0.580,�쓌,0.9,��
2021/07/07,13:20,0.584,0.852,0.553,1.038,0.725,0.360,0.620,0.579,�k��,1.1,��
2021/07/07,13:30,0.585,0.854,0.554,1.040,0.725,0.359,0.619,0.579,��,1.4,��
2021/07/07,13:40,0.585,0.856,0.553,1.038,0.727,0.359,0.618,0.581,���쓌,1.1,��
2021/07/07,13:50,0.585,0.854,0.556,1.039,0.729,0.361,0.619,0.579,���k��,1.1,��
2021/07/07,14:00,0.586,0.855,0.555,1.040,0.729,0.361,0.619,0.580,�쓌,0.9,��
2021/07/07,14:10,0.586,0.856,0.554,1.040,0.729,0.360,0.621,0.579,��쓌,1.2,��
2021/07/07,14:20,0.585,0.856,0.554,1.040,0.725,0.359,0.620,0.581,�쓌,1.5,��
2021/07/07,14:30,0.585,0.856,0.554,1.039,0.730,0.360,0.620,0.580,�쓌,1.5,��
2021/07/07,14:40,0.585,0.859,0.554,1.041,0.732,0.359,0.621,0.579,�쓌,1.5,��
2021/07/07,14:50,0.587,0.859,0.555,1.043,0.733,0.359,0.621,0.582,���쓌,1.2,��
2021/07/07,15:00,0.587,0.859,0.555,1.042,0.733,0.360,0.619,0.580,�쓌,1.2,��
2021/07/07,15:10,0.587,0.858,0.556,1.042,0.731,0.360,0.620,0.582,��,0.9,��
2021/07/07,15:20,0.586,0.860,0.554,1.041,0.733,0.361,0.622,0.580,���k��,0.8,��
2021/07/07,15:30,0.586,0.862,0.555,1.043,0.731,0.360,0.621,0.581,��,0.6,��
2021/07/07,15:40,0.587,0.862,0.556,1.043,0.732,0.360,0.623,0.581,-,CALM,��
2021/07/07,15:50,0.587,0.862,0.557,1.044,0.732,0.359,0.621,0.582,���쓌,0.6,��
2021/07/07,16:00,0.586,0.862,0.556,1.045,0.732,0.359,0.621,0.581,���쓌,1.1,��
2021/07/07,16:10,0.588,0.863,0.556,1.045,0.731,0.360,0.621,0.580,�쓌,0.6,��
2021/07/07,16:20,0.588,0.863,0.555,1.047,0.732,0.359,0.621,0.581,��,1.2,��
2021/07/07,16:30,0.589,0.864,0.558,1.046,0.735,0.359,0.623,0.581,�k��,1.1,��
2021/07/07,16:40,0.589,0.861,0.557,1.047,0.734,0.360,0.621,0.583,�k�k��,0.8,�L
2021/07/07,16:50,0.586,0.865,0.559,1.047,0.733,0.361,0.621,0.582,�k,0.6,��
2021/07/07,17:00,0.586,0.861,0.558,1.049,0.736,0.361,0.621,0.583,�k,0.6,��
2021/07/07,17:10,0.586,0.866,0.558,1.049,0.735,0.361,0.624,0.582,�k�k��,0.9,��
2021/07/07,17:20,0.588,0.865,0.558,1.050,0.736,0.359,0.621,0.581,�k�k��,1.5,��
2021/07/07,17:30,0.587,0.865,0.559,1.050,0.738,0.361,0.621,0.583,�k,1.5,��
2021/07/07,17:40,0.588,0.865,0.559,1.049,0.738,0.360,0.623,0.583,�k�k��,2.0,��
2021/07/07,17:50,0.588,0.867,0.558,1.050,0.739,0.359,0.621,0.584,�k,2.3,��
2021/07/07,18:00,0.588,0.867,0.558,1.049,0.738,0.361,0.621,0.582,�k�k��,2.3,��
2021/07/07,18:10,0.588,0.865,0.558,1.052,0.737,0.360,0.621,0.584,�k,2.2,��
2021/07/07,18:20,0.589,0.866,0.560,1.051,0.739,0.362,0.623,0.583,�k,2.6,�L
2021/07/07,18:30,0.589,0.866,0.558,1.051,0.738,0.361,0.623,0.584,�k,1.9,��
2021/07/07,18:40,0.589,0.866,0.559,1.050,0.739,0.361,0.623,0.583,�k,1.4,��
2021/07/07,18:50,0.588,0.864,0.559,1.052,0.738,0.362,0.623,0.583,�k,1.7,��
2021/07/07,19:00,0.588,0.864,0.560,1.051,0.739,0.362,0.622,0.584,�k,2.0,��
2021/07/07,19:10,0.589,0.866,0.559,1.052,0.739,0.361,0.623,0.584,�k,2.0,�L
2021/07/07,19:20,0.589,0.867,0.561,1.052,0.741,0.361,0.623,0.584,�k,2.3,�L
2021/07/07,19:30,0.589,0.868,0.562,1.052,0.741,0.361,0.624,0.584,�k,1.7,�L
2021/07/07,19:40,0.589,0.867,0.562,1.049,0.740,0.361,0.624,0.583,�k,1.5,�L
2021/07/07,19:50,0.591,0.867,0.563,1.054,0.741,0.363,0.622,0.584,�k,1.5,�L
2021/07/07,20:00,0.590,0.868,0.562,1.054,0.741,0.362,0.625,0.584,�k,2.5,�L
2021/07/07,20:10,0.587,0.868,0.561,1.050,0.742,0.363,0.623,0.584,�k,2.2,�L
2021/07/07,20:20,0.591,0.864,0.561,1.051,0.742,0.363,0.624,0.585,�k,2.5,�L
2021/07/07,20:30,0.591,0.864,0.559,1.054,0.740,0.362,0.623,0.584,�k,2.3,��
2021/07/07,20:40,0.588,0.864,0.560,1.052,0.742,0.362,0.623,0.584,�k�k��,1.5,�L
2021/07/07,20:50,0.589,0.867,0.558,1.052,0.741,0.361,0.623,0.584,�k�k��,1.5,�L
2021/07/07,21:00,0.588,0.864,0.561,1.054,0.742,0.363,0.623,0.584,�k,2.3,�L
2021/07/07,21:10,0.587,0.863,0.559,1.053,0.740,0.363,0.624,0.585,�k�k��,1.4,�L
2021/07/07,21:20,0.587,0.861,0.559,1.054,0.741,0.363,0.622,0.585,�k,2.5,�L
2021/07/07,21:30,0.589,0.863,0.558,1.052,0.738,0.364,0.623,0.585,�k,3.1,��
2021/07/07,21:40,0.587,0.863,0.559,1.052,0.740,0.363,0.622,0.584,�k,2.6,��
2021/07/07,21:50,0.587,0.862,0.558,1.052,0.738,0.362,0.622,0.583,�k,3.3,��
2021/07/07,22:00,0.586,0.860,0.558,1.051,0.738,0.362,0.622,0.582,�k,3.0,��
2021/07/07,22:10,0.589,0.860,0.558,1.052,0.738,0.361,0.621,0.582,�k�k��,2.8,��
2021/07/07,22:20,0.588,0.861,0.558,1.052,0.738,0.361,0.621,0.582,�k,1.9,��
2021/07/07,22:30,0.588,0.860,0.557,1.052,0.740,0.362,0.623,0.581,�k��,1.1,�L
2021/07/07,22:40,0.587,0.861,0.558,1.052,0.738,0.361,0.623,0.582,�k,2.0,�L
2021/07/07,22:50,0.587,0.861,0.560,1.052,0.740,0.362,0.622,0.583,�k�k��,1.7,�L
2021/07/07,23:00,0.590,0.861,0.560,1.051,0.740,0.361,0.622,0.582,�k�k��,1.2,�L
2021/07/07,23:10,0.589,0.860,0.561,1.053,0.738,0.363,0.623,0.584,�k�k��,1.4,�L
2021/07/07,23:20,0.587,0.861,0.559,1.052,0.739,0.363,0.622,0.582,�k,2.6,�L
2021/07/07,23:30,0.587,0.860,0.558,1.049,0.739,0.362,0.622,0.582,�k,1.5,��
2021/07/07,23:40,0.588,0.859,0.558,1.052,0.740,0.362,0.622,0.583,�k�k��,1.7,��
2021/07/07,23:50,0.585,0.860,0.558,1.050,0.738,0.363,0.621,0.581,�k,2.0,��
